Terminal Aerodrome Forecast
Issued by NWS North Platte, NE

Home | Current Version | Previous Version | Text Only | Print | Product List | Glossary Off
Versions: 1 2 3 4 5 6 7 8 9 10 11 12 13

000
FTUS43 KLBF 270500
TAFVTN
TAF
KVTN 270520Z 2706/2806 36007KT P6SM FEW250
     FM271700 34014G22KT P6SM FEW070 SCT250
     FM280000 01010KT P6SM SCT250=

USA.gov is the U.S. government's official web portal to all federal, state and local government web resources and services.